QPF
0.03 0.03 0.03 0.04 0.03 0.02 0.02 0.02 0.04 0.07 0.13 0.20 0.16 0.10 0.08 0.05 0.04 0.03 0.02 0.02 0.01 0.01 0.01 0.01 0.01 0.01 0.01 0.01 0.00 0.00 0.00 0.00 0.00 0.00 0.00 0.00 0.00 0.00 0.00 0.00 0.00 0.00 0.00 0.00
0.06 0.06 0.07 0.10 0.09 0.10 0.06 0.03 0.04 0.06 0.11 0.14 0.11 0.07 0.05 0.04 0.05 0.05 0.04 0.03 0.03 0.03 0.02 0.02 0.01 0.01 0.01 0.01 0.00 0.00 0.00 0.00 0.00 0.00 0.00 0.00 0.00 0.00 0.00 0.00 0.00 0.00 0.00 0.00
0.09 0.07 0.09 0.12 0.11 0.08 0.05 0.04 0.05 0.05 0.07 0.06 0.06 0.07 0.07 0.07 0.07 0.06 0.04 0.04 0.05 0.06 0.06 0.04 0.02 0.02 0.01 0.01 0.01 0.00 0.00 0.00 0.00 0.00 0.00 0.00 0.00 0.01 0.00 0.00 0.00 0.00 0.00 0.00
0.08 0.07 0.11 0.12 0.12 0.08 0.03 0.03 0.04 0.02 0.03 0.04 0.04 0.04 0.04 0.04 0.04 0.04 0.03 0.02 0.03 0.04 0.04 0.04 0.02 0.01 0.01 0.01 0.01 0.01 0.01 0.00 0.00 0.00 0.00 0.00 0.00 0.00 0.00 0.00 0.00 0.00 0.00 0.00
0.05 0.07 0.08 0.06 0.08 0.07 0.03 0.02 0.02 0.01 0.01 0.02 0.03 0.03 0.04 0.04 0.04 0.04 0.03 0.03 0.03 0.03 0.03 0.02 0.02 0.01 0.01 0.01 0.01 0.01 0.01 0.01 0.00 0.01 0.01 0.00 0.00 0.00 0.00 0.00 0.00 0.00 0.00 0.00
0.05 0.08 0.06 0.05 0.05 0.03 0.02 0.02 0.03 0.01 0.01 0.02 0.03 0.02 0.02 0.03 0.03 0.04 0.03 0.04 0.04 0.03 0.02 0.01 0.01 0.01 0.01 0.01 0.00 0.01 0.01 0.01 0.00 0.00 0.00 0.00 0.00 0.00 0.00 0.00 0.00 0.01 0.00 0.00
0.02 0.04 0.03 0.02 0.02 0.03 0.03 0.03 0.03 0.02 0.02 0.02 0.04 0.03 0.02 0.02 0.02 0.02 0.03 0.03 0.03 0.02 0.01 0.01 0.01 0.01 0.01 0.01 0.00 0.00 0.00 0.00 0.00 0.00 0.00 0.00 0.00 0.00 0.00 0.00 0.00 0.00 0.00 0.00
0.01 0.02 0.01 0.01 0.01 0.01 0.01 0.01 0.01 0.01 0.02 0.03 0.04 0.04 0.02 0.02 0.02 0.02 0.02 0.02 0.02 0.02 0.02 0.01 0.01 0.01 0.01 0.01 0.00 0.00 0.00 0.00 0.00 0.00 0.00 0.00 0.00 0.00 0.00 0.00 0.00 0.00 0.00 0.00
0.01 0.01 0.00 0.00 0.00 0.00 0.00 0.00 0.00 0.00 0.00 0.01 0.01 0.01 0.01 0.01 0.01 0.02 0.02 0.02 0.02 0.02 0.02 0.02 0.01 0.01 0.01 0.01 0.00 0.00 0.00 0.00 0.00 0.00 0.00 0.00 0.00 0.00 0.00 0.00 0.00 0.00 0.00 0.00
0.00 0.00 0.00 0.00 0.00 0.00 0.00 0.00 0.00 0.00 0.00 0.00 0.00 0.00 0.01 0.01 0.01 0.02 0.02 0.01 0.01 0.01 0.01 0.01 0.01 0.01 0.01 0.01 0.00 0.00 0.00 0.00 0.00 0.00 0.00 0.00 0.00 0.00 0.00 0.00 0.00 0.00 0.00 0.00
0.00 0.00 0.00 0.00 0.00 0.00 0.00 0.00 0.00 0.00 0.00 0.00 0.00 0.00 0.00 0.00 0.01 0.01 0.01 0.01 0.01 0.01 0.01 0.01 0.00 0.00 0.00 0.00 0.00 0.00 0.00 0.00 0.00 0.00 0.00 0.01 0.01 0.00 0.00 0.00 0.00 0.00 0.00 0.00
0.00 0.00 0.00 0.00 0.00 0.00 0.00 0.00 0.00 0.00 0.00 0.00 0.00 0.00 0.00 0.00 0.00 0.01 0.01 0.01 0.01 0.01 0.01 0.01 0.00 0.00 0.00 0.00 0.00 0.00 0.00 0.00 0.00 0.00 0.00 0.01 0.00 0.00 0.00 0.00 0.00 0.00 0.00 0.00
0.00 0.00 0.00 0.00 0.00 0.00 0.00 0.00 0.00 0.00 0.00 0.00 0.00 0.00 0.00 0.00 0.00 0.00 0.00 0.00 0.00 0.00 0.00 0.00 0.00 0.00 0.00 0.00 0.00 0.00 0.00 0.00 0.00 0.00 0.00 0.00 0.00 0.00 0.00 0.00 0.00 0.00 0.00 0.00
0.00 0.00 0.00 0.00 0.00 0.00 0.00 0.00 0.00 0.00 0.00 0.00 0.00 0.00 0.00 0.00 0.00 0.00 0.00 0.00 0.00 0.00 0.00 0.00 0.00 0.00 0.00 0.00 0.00 0.00 0.00 0.00 0.00 0.00 0.00 0.00 0.00 0.00 0.00 0.00 0.00 0.00 0.00 0.00
0.00 0.00 0.00 0.00 0.00 0.00 0.00 0.00 0.00 0.00 0.00 0.00 0.00 0.00 0.00 0.00 0.00 0.00 0.00 0.00 0.00 0.00 0.00 0.00 0.00 0.00 0.00 0.00 0.00 0.00 0.00 0.00 0.00 0.00 0.00 0.00 0.00 0.00 0.00 0.00 0.00 0.00 0.00 0.00
0.00 0.00 0.00 0.00 0.00 0.00 0.00 0.00 0.00 0.00 0.00 0.00 0.00 0.00 0.00 0.00 0.00 0.00 0.00 0.00 0.00 0.00 0.00 0.00 0.00 0.00 0.00 0.00 0.00 0.00 0.00 0.00 0.00 0.00 0.00 0.00 0.00 0.00 0.00 0.00 0.00 0.00 0.00 0.00
0.00 0.00 0.00 0.00 0.00 0.00 0.00 0.00 0.00 0.00 0.00 0.00 0.00 0.00 0.00 0.00 0.00 0.00 0.00 0.00 0.00 0.00 0.00 0.00 0.00 0.00 0.00 0.00 0.00 0.01 0.01 0.00 0.00 0.00 0.00 0.00 0.00 0.00 0.00 0.00 0.00 0.00 0.00 0.00
0.00 0.00 0.00 0.00 0.00 0.00 0.00 0.00 0.00 0.00 0.00 0.00 0.00 0.00 0.00 0.00 0.00 0.00 0.00 0.00 0.00 0.00 0.00 0.00 0.00 0.00 0.00 0.00 0.00 0.00 0.00 0.00 0.00 0.00 0.00 0.00 0.00 0.00 0.00 0.00 0.00 0.00 0.00 0.00
0.00 0.00 0.00 0.00 0.00 0.00 0.00 0.00 0.00 0.00 0.00 0.00 0.00 0.00 0.00 0.00 0.00 0.00 0.00 0.00 0.00 0.00 0.00 0.00 0.00 0.00 0.00 0.00 0.00 0.00 0.00 0.00 0.00 0.00 0.00 0.00 0.00 0.00 0.00 0.00 0.00 0.00 0.00 0.00
0.00 0.00 0.00 0.00 0.00 0.00 0.00 0.00 0.00 0.00 0.00 0.00 0.00 0.00 0.00 0.00 0.00 0.00 0.00 0.00 0.00 0.00 0.00 0.00 0.00 0.00 0.00 0.00 0.00 0.00 0.00 0.00 0.00 0.00 0.00 0.00 0.00 0.00 0.00 0.00 0.00 0.00 0.00 0.00
0.00 0.00 0.00 0.00 0.00 0.00 0.00 0.00 0.00 0.00 0.00 0.00 0.00 0.00 0.00 0.00 0.00 0.00 0.00 0.00 0.00 0.00 0.00 0.00 0.00 0.00 0.00 0.00 0.00 0.00 0.00 0.00 0.00 0.00 0.00 0.00 0.00 0.00 0.00 0.00 0.00 0.00 0.00 0.00
0.00 0.00 0.00 0.00 0.00 0.00 0.00 0.00 0.00 0.00 0.00 0.00 0.00 0.00 0.00 0.00 0.00 0.00 0.00 0.00 0.00 0.00 0.00 0.00 0.00 0.00 0.00 0.00 0.00 0.00 0.00 0.00 0.00 0.00 0.00 0.00 0.00 0.00 0.00 0.00 0.00 0.00 0.00 0.00
0.00 0.00 0.00 0.00 0.00 0.00 0.00 0.00 0.00 0.00 0.00 0.00 0.00 0.00 0.00 0.00 0.00 0.00 0.00 0.00 0.00 0.00 0.00 0.00 0.00 0.00 0.00 0.00 0.00 0.00 0.00 0.00 0.00 0.00 0.00 0.00 0.00 0.00 0.00 0.00 0.00 0.00 0.00 0.00
0.00 0.00 0.00 0.00 0.00 0.00 0.00 0.00 0.00 0.00 0.00 0.00 0.00 0.00 0.00 0.00 0.00 0.00 0.00 0.00 0.00 0.00 0.00 0.00 0.00 0.00 0.00 0.00 0.00 0.00 0.00 0.00 0.00 0.00 0.00 0.00 0.00 0.00 0.00 0.00 0.00 0.00 0.00 0.00
0.00 0.00 0.00 0.00 0.00 0.00 0.00 0.00 0.00 0.00 0.00 0.00 0.00 0.00 0.00 0.00 0.00 0.00 0.00 0.00 0.00 0.00 0.00 0.00 0.00 0.00 0.00 0.00 0.00 0.00 0.00 0.00 0.00 0.00 0.00 0.00 0.00 0.00 0.00 0.00 0.00 0.00 0.00 0.00
0.00 0.00 0.00 0.00 0.00 0.00 0.00 0.00 0.00 0.00 0.00 0.00 0.00 0.00 0.00 0.00 0.00 0.00 0.00 0.00 0.00 0.00 0.00 0.00 0.00 0.00 0.00 0.00 0.00 0.00 0.00 0.00 0.00 0.00 0.00 0.00 0.00 0.00 0.00 0.00 0.00 0.00 0.00 0.00
0.00 0.00 0.00 0.00 0.00 0.00 0.00 0.00 0.00 0.00 0.00 0.00 0.00 0.00 0.00 0.00 0.00 0.00 0.00 0.00 0.00 0.00 0.00 0.00 0.00 0.00 0.00 0.00 0.00 0.00 0.00 0.00 0.00 0.00 0.00 0.00 0.00 0.00 0.00 0.00 0.00 0.00 0.00 0.00
MSLP
1012.19 1012.46 1012.75 1013.06 1013.39 1013.74 1014.11 1014.50 1014.91 1015.34 1015.81 1016.31 1016.85 1017.42 1018.03 1018.64 1019.26 1019.84 1020.37 1020.83 1021.20 1021.49 1021.70 1021.85 1021.97 1022.07 1022.18 1022.32 1022.50 1022.72 1022.97 1023.25 1023.54 1023.84 1024.13 1024.42 1024.70 1024.97 1025.24 1025.50 1025.75 1025.99 1026.19 1026.35
1012.36 1012.73 1013.06 1013.37 1013.67 1013.97 1014.28 1014.62 1015.01 1015.46 1015.97 1016.55 1017.20 1017.88 1018.57 1019.26 1019.90 1020.47 1020.95 1021.34 1021.63 1021.84 1021.99 1022.10 1022.20 1022.32 1022.47 1022.66 1022.89 1023.15 1023.44 1023.72 1024.01 1024.28 1024.53 1024.78 1025.02 1025.25 1025.50 1025.74 1025.99 1026.23 1026.44 1026.61
1012.55 1012.97 1013.33 1013.63 1013.90 1014.16 1014.44 1014.76 1015.15 1015.62 1016.19 1016.85 1017.58 1018.35 1019.12 1019.86 1020.52 1021.10 1021.55 1021.90 1022.14 1022.30 1022.41 1022.51 1022.61 1022.75 1022.93 1023.16 1023.42 1023.69 1023.98 1024.25 1024.50 1024.72 1024.92 1025.11 1025.30 1025.50 1025.72 1025.95 1026.18 1026.42 1026.63 1026.79
1012.78 1013.20 1013.55 1013.84 1014.09 1014.32 1014.59 1014.90 1015.31 1015.82 1016.44 1017.17 1017.96 1018.80 1019.63 1020.40 1021.09 1021.67 1022.12 1022.45 1022.67 1022.82 1022.93 1023.03 1023.15 1023.32 1023.52 1023.77 1024.03 1024.30 1024.56 1024.79 1024.99 1025.16 1025.30 1025.43 1025.57 1025.73 1025.92 1026.13 1026.35 1026.58 1026.78 1026.93
1013.01 1013.41 1013.73 1014.00 1014.23 1014.45 1014.71 1015.04 1015.47 1016.02 1016.68 1017.45 1018.29 1019.17 1020.03 1020.84 1021.54 1022.13 1022.59 1022.92 1023.15 1023.32 1023.45 1023.58 1023.74 1023.93 1024.15 1024.40 1024.66 1024.91 1025.12 1025.30 1025.44 1025.55 1025.63 1025.72 1025.82 1025.95 1026.11 1026.31 1026.52 1026.74 1026.92 1027.06
1013.21 1013.56 1013.85 1014.09 1014.31 1014.53 1014.80 1015.15 1015.61 1016.18 1016.88 1017.67 1018.54 1019.43 1020.30 1021.12 1021.83 1022.43 1022.90 1023.26 1023.52 1023.72 1023.89 1024.06 1024.25 1024.47 1024.70 1024.95 1025.19 1025.41 1025.59 1025.72 1025.81 1025.87 1025.91 1025.96 1026.04 1026.16 1026.31 1026.50 1026.71 1026.91 1027.08 1027.19
1013.33 1013.62 1013.88 1014.10 1014.32 1014.57 1014.86 1015.24 1015.72 1016.32 1017.02 1017.82 1018.69 1019.57 1020.43 1021.24 1021.95 1022.55 1023.04 1023.42 1023.72 1023.96 1024.18 1024.39 1024.61 1024.85 1025.10 1025.34 1025.57 1025.76 1025.90 1026.00 1026.06 1026.09 1026.12 1026.16 1026.23 1026.35 1026.51 1026.70 1026.91 1027.10 1027.25 1027.34
1013.31 1013.57 1013.81 1014.04 1014.29 1014.56 1014.90 1015.31 1015.82 1016.43 1017.14 1017.93 1018.77 1019.63 1020.46 1021.23 1021.93 1022.52 1023.02 1023.42 1023.76 1024.04 1024.29 1024.54 1024.79 1025.04 1025.29 1025.53 1025.74 1025.91 1026.04 1026.12 1026.17 1026.20 1026.24 1026.29 1026.38 1026.52 1026.69 1026.89 1027.10 1027.28 1027.42 1027.49
1013.16 1013.42 1013.67 1013.93 1014.22 1014.55 1014.94 1015.40 1015.94 1016.57 1017.28 1018.04 1018.84 1019.66 1020.44 1021.18 1021.84 1022.42 1022.91 1023.33 1023.68 1023.98 1024.27 1024.53 1024.80 1025.06 1025.31 1025.54 1025.74 1025.91 1026.03 1026.12 1026.18 1026.23 1026.29 1026.37 1026.49 1026.65 1026.84 1027.04 1027.25 1027.43 1027.55 1027.61
1012.90 1013.19 1013.49 1013.81 1014.17 1014.57 1015.03 1015.55 1016.13 1016.77 1017.47 1018.21 1018.97 1019.72 1020.45 1021.14 1021.76 1022.31 1022.79 1023.20 1023.56 1023.88 1024.17 1024.44 1024.71 1024.97 1025.21 1025.43 1025.62 1025.79 1025.92 1026.02 1026.11 1026.19 1026.29 1026.41 1026.55 1026.73 1026.93 1027.14 1027.34 1027.51 1027.61 1027.65
1012.60 1012.94 1013.31 1013.72 1014.17 1014.66 1015.20 1015.78 1016.40 1017.06 1017.75 1018.47 1019.18 1019.88 1020.56 1021.19 1021.76 1022.28 1022.73 1023.13 1023.48 1023.79 1024.07 1024.34 1024.59 1024.83 1025.06 1025.27 1025.46 1025.63 1025.77 1025.90 1026.02 1026.14 1026.27 1026.42 1026.59 1026.77 1026.97 1027.17 1027.35 1027.49 1027.57 1027.59
1012.32 1012.73 1013.19 1013.70 1014.25 1014.84 1015.46 1016.11 1016.78 1017.46 1018.14 1018.83 1019.50 1020.15 1020.77 1021.35 1021.88 1022.36 1022.78 1023.15 1023.48 1023.77 1024.04 1024.28 1024.51 1024.73 1024.94 1025.13 1025.32 1025.49 1025.65 1025.80 1025.95 1026.10 1026.26 1026.42 1026.60 1026.78 1026.96 1027.13 1027.27 1027.37 1027.43 1027.43
1012.11 1012.60 1013.15 1013.77 1014.42 1015.11 1015.81 1016.52 1017.22 1017.92 1018.60 1019.26 1019.89 1020.50 1021.07 1021.60 1022.09 1022.52 1022.92 1023.26 1023.57 1023.83 1024.07 1024.29 1024.49 1024.68 1024.86 1025.04 1025.21 1025.39 1025.56 1025.73 1025.91 1026.08 1026.25 1026.43 1026.59 1026.76 1026.90 1027.02 1027.12 1027.18 1027.21 1027.19
1011.98 1012.55 1013.20 1013.91 1014.66 1015.42 1016.20 1016.96 1017.69 1018.40 1019.07 1019.70 1020.30 1020.86 1021.39 1021.88 1022.33 1022.74 1023.10 1023.42 1023.70 1023.94 1024.15 1024.33 1024.50 1024.66 1024.82 1024.98 1025.14 1025.32 1025.50 1025.69 1025.88 1026.07 1026.26 1026.43 1026.58 1026.71 1026.82 1026.89 1026.94 1026.96 1026.94 1026.91
1011.92 1012.57 1013.30 1014.09 1014.92 1015.76 1016.58 1017.38 1018.13 1018.84 1019.49 1020.10 1020.66 1021.18 1021.67 1022.13 1022.55 1022.93 1023.27 1023.57 1023.83 1024.04 1024.22 1024.38 1024.52 1024.65 1024.78 1024.92 1025.08 1025.25 1025.44 1025.65 1025.85 1026.06 1026.25 1026.41 1026.55 1026.66 1026.73 1026.76 1026.77 1026.74 1026.70 1026.65
1011.89 1012.61 1013.41 1014.27 1015.16 1016.05 1016.91 1017.73 1018.48 1019.17 1019.80 1020.38 1020.91 1021.40 1021.85 1022.28 1022.68 1023.04 1023.37 1023.65 1023.89 1024.09 1024.25 1024.38 1024.50 1024.60 1024.71 1024.84 1024.98 1025.16 1025.35 1025.57 1025.79 1026.01 1026.21 1026.38 1026.51 1026.60 1026.65 1026.66 1026.63 1026.58 1026.52 1026.46
1011.86 1012.63 1013.50 1014.41 1015.35 1016.27 1017.15 1017.97 1018.71 1019.38 1019.99 1020.53 1021.02 1021.48 1021.91 1022.32 1022.70 1023.05 1023.37 1023.65 1023.88 1024.07 1024.22 1024.33 1024.42 1024.51 1024.60 1024.70 1024.84 1025.01 1025.21 1025.44 1025.67 1025.91 1026.13 1026.31 1026.46 1026.55 1026.60 1026.60 1026.57 1026.51 1026.44 1026.38
1011.78 1012.62 1013.54 1014.50 1015.47 1016.41 1017.30 1018.11 1018.83 1019.47 1020.04 1020.55 1021.01 1021.44 1021.85 1022.25 1022.63 1022.98 1023.30 1023.58 1023.81 1023.99 1024.13 1024.23 1024.31 1024.37 1024.44 1024.54 1024.66 1024.83 1025.03 1025.26 1025.51 1025.77 1026.01 1026.22 1026.38 1026.50 1026.57 1026.58 1026.56 1026.52 1026.47 1026.42
1011.67 1012.57 1013.54 1014.54 1015.53 1016.48 1017.35 1018.14 1018.84 1019.45 1019.98 1020.47 1020.91 1021.32 1021.73 1022.12 1022.50 1022.86 1023.19 1023.48 1023.72 1023.90 1024.04 1024.13 1024.19 1024.24 1024.29 1024.36 1024.48 1024.63 1024.83 1025.06 1025.33 1025.60 1025.86 1026.10 1026.30 1026.45 1026.55 1026.60 1026.62 1026.60 1026.57 1026.55
1011.55 1012.50 1013.51 1014.54 1015.54 1016.49 1017.35 1018.11 1018.78 1019.36 1019.87 1020.34 1020.76 1021.18 1021.58 1021.98 1022.38 1022.76 1023.10 1023.40 1023.65 1023.84 1023.98 1024.06 1024.11 1024.14 1024.18 1024.23 1024.32 1024.46 1024.65 1024.88 1025.14 1025.43 1025.71 1025.98 1026.21 1026.40 1026.54 1026.64 1026.69 1026.71 1026.72 1026.72
1011.47 1012.47 1013.50 1014.54 1015.54 1016.47 1017.30 1018.04 1018.68 1019.24 1019.74 1020.19 1020.62 1021.04 1021.46 1021.88 1022.29 1022.69 1023.06 1023.38 1023.64 1023.84 1023.97 1024.06 1024.10 1024.11 1024.13 1024.16 1024.23 1024.35 1024.52 1024.74 1025.00 1025.28 1025.58 1025.86 1026.12 1026.35 1026.52 1026.66 1026.75 1026.81 1026.85 1026.88
1011.46 1012.48 1013.53 1014.56 1015.54 1016.44 1017.24 1017.95 1018.57 1019.11 1019.59 1020.05 1020.48 1020.92 1021.36 1021.80 1022.24 1022.67 1023.05 1023.39 1023.67 1023.88 1024.02 1024.10 1024.13 1024.14 1024.14 1024.16 1024.21 1024.30 1024.45 1024.65 1024.90 1025.18 1025.47 1025.76 1026.03 1026.27 1026.48 1026.64 1026.77 1026.86 1026.93 1026.98
1011.53 1012.56 1013.60 1014.60 1015.54 1016.39 1017.16 1017.83 1018.42 1018.95 1019.43 1019.89 1020.34 1020.80 1021.27 1021.74 1022.20 1022.65 1023.06 1023.42 1023.70 1023.92 1024.07 1024.15 1024.19 1024.19 1024.18 1024.19 1024.22 1024.30 1024.43 1024.61 1024.84 1025.10 1025.38 1025.66 1025.93 1026.18 1026.39 1026.57 1026.72 1026.83 1026.91 1026.98
1011.67 1012.68 1013.68 1014.63 1015.52 1016.32 1017.03 1017.67 1018.23 1018.75 1019.23 1019.70 1020.17 1020.66 1021.15 1021.64 1022.13 1022.59 1023.01 1023.38 1023.68 1023.90 1024.06 1024.15 1024.19 1024.19 1024.19 1024.20 1024.23 1024.30 1024.42 1024.58 1024.79 1025.03 1025.29 1025.56 1025.81 1026.05 1026.26 1026.44 1026.58 1026.70 1026.80 1026.88
1011.83 1012.80 1013.74 1014.63 1015.44 1016.18 1016.84 1017.43 1017.98 1018.48 1018.97 1019.45 1019.94 1020.44 1020.95 1021.46 1021.96 1022.43 1022.86 1023.23 1023.53 1023.76 1023.92 1024.03 1024.08 1024.10 1024.12 1024.14 1024.18 1024.25 1024.37 1024.53 1024.72 1024.94 1025.18 1025.42 1025.66 1025.87 1026.07 1026.23 1026.37 1026.49 1026.59 1026.68
1011.96 1012.87 1013.73 1014.54 1015.28 1015.95 1016.56 1017.12 1017.64 1018.14 1018.63 1019.12 1019.63 1020.14 1020.66 1021.18 1021.68 1022.14 1022.57 1022.93 1023.23 1023.46 1023.64 1023.75 1023.83 1023.88 1023.92 1023.97 1024.03 1024.13 1024.26 1024.42 1024.60 1024.81 1025.03 1025.24 1025.45 1025.64 1025.81 1025.96 1026.09 1026.20 1026.30 1026.40
1011.99 1012.82 1013.61 1014.34 1015.01 1015.62 1016.18 1016.71 1017.22 1017.72 1018.21 1018.72 1019.23 1019.75 1020.27 1020.78 1021.27 1021.72 1022.13 1022.48 1022.78 1023.01 1023.19 1023.32 1023.42 1023.51 1023.59 1023.67 1023.77 1023.90 1024.05 1024.22 1024.41 1024.61 1024.81 1025.01 1025.19 1025.35 1025.50 1025.63 1025.75 1025.86 1025.96 1026.07
Thickness
5650 5656 5658 5656 5657 5659 5653 5645 5634 5630 5627 5621 5616 5610 5602 5596 5591 5586 5582 5578 5574 5570 5566 5564 5562 5559 5557 5555 5553 5550 5547 5545 5542 5540 5539 5537 5535 5533 5531 5528 5526 5523 5520 5518
5648 5658 5657 5652 5652 5652 5648 5643 5635 5628 5619 5618 5612 5604 5596 5590 5585 5579 5574 5570 5565 5561 5558 5554 5552 5550 5547 5544 5541 5539 5536 5533 5531 5530 5528 5526 5524 5522 5520 5517 5515 5513 5510 5507
5637 5649 5648 5634 5642 5643 5639 5636 5630 5620 5616 5610 5602 5597 5591 5584 5579 5573 5568 5562 5557 5553 5549 5545 5543 5540 5537 5534 5532 5529 5526 5524 5522 5520 5518 5516 5515 5512 5509 5507 5505 5502 5499 5496
5633 5637 5621 5632 5648 5646 5634 5627 5626 5620 5612 5606 5598 5589 5583 5578 5572 5565 5559 5553 5549 5544 5540 5537 5534 5532 5529 5526 5523 5520 5517 5515 5513 5511 5509 5507 5505 5503 5501 5498 5495 5493 5490 5487
5628 5625 5625 5635 5642 5639 5627 5614 5616 5610 5602 5594 5586 5578 5570 5567 5562 5556 5550 5544 5539 5535 5532 5529 5526 5524 5521 5518 5515 5512 5509 5508 5506 5504 5501 5499 5497 5495 5493 5490 5488 5485 5482 5479
5631 5623 5619 5630 5643 5645 5630 5607 5609 5605 5596 5588 5583 5574 5565 5559 5553 5546 5541 5536 5531 5527 5524 5521 5518 5515 5512 5509 5506 5504 5502 5501 5499 5497 5494 5492 5490 5487 5485 5483 5481 5479 5476 5473
5631 5623 5626 5637 5644 5641 5616 5608 5608 5601 5594 5585 5579 5573 5564 5554 5546 5540 5534 5529 5524 5520 5516 5512 5510 5507 5504 5501 5498 5497 5496 5494 5492 5490 5487 5485 5483 5481 5479 5477 5475 5472 5469 5467
5629 5617 5619 5639 5638 5627 5619 5616 5607 5597 5589 5581 5573 5565 5556 5548 5540 5534 5528 5522 5518 5513 5508 5505 5503 5499 5496 5493 5493 5492 5490 5488 5485 5483 5482 5479 5476 5474 5472 5470 5467 5465 5463 5460
5629 5624 5631 5635 5632 5627 5622 5611 5601 5592 5583 5576 5567 5558 5550 5542 5534 5528 5522 5517 5511 5506 5501 5498 5496 5493 5489 5488 5488 5486 5483 5481 5479 5477 5475 5473 5470 5467 5464 5462 5460 5458 5456 5454
5630 5629 5631 5629 5626 5621 5616 5607 5598 5589 5580 5572 5562 5553 5544 5537 5529 5523 5517 5511 5506 5500 5495 5491 5490 5488 5486 5484 5483 5480 5477 5475 5473 5470 5468 5466 5463 5461 5459 5456 5454 5453 5451 5449
5629 5628 5627 5624 5621 5615 5609 5601 5592 5582 5575 5566 5557 5548 5540 5532 5525 5519 5513 5506 5500 5495 5490 5486 5485 5483 5482 5480 5478 5475 5472 5470 5468 5465 5462 5460 5458 5456 5454 5453 5451 5449 5448 5447
5634 5636 5628 5620 5618 5614 5605 5595 5587 5578 5568 5560 5553 5544 5536 5528 5521 5515 5508 5502 5496 5491 5486 5483 5481 5479 5478 5477 5474 5471 5468 5466 5463 5461 5459 5456 5453 5451 5451 5450 5449 5449 5448 5447
5656 5647 5636 5626 5618 5612 5602 5593 5585 5576 5566 5557 5549 5542 5534 5525 5518 5512 5505 5499 5493 5488 5484 5481 5479 5477 5476 5475 5472 5468 5465 5463 5461 5459 5457 5455 5452 5449 5447 5447 5448 5448 5448 5447
5662 5650 5633 5624 5616 5609 5601 5591 5582 5572 5564 5556 5547 5539 5531 5524 5517 5510 5503 5498 5493 5488 5484 5480 5478 5476 5475 5474 5471 5468 5465 5463 5461 5459 5458 5456 5453 5451 5448 5446 5445 5446 5448 5448
5655 5649 5637 5626 5615 5606 5598 5589 5578 5569 5560 5552 5545 5537 5530 5522 5515 5509 5504 5499 5494 5488 5485 5481 5479 5476 5475 5473 5470 5468 5465 5463 5462 5460 5459 5457 5455 5452 5450 5448 5446 5445 5445 5446
5649 5642 5634 5624 5614 5604 5596 5587 5577 5568 5560 5552 5544 5537 5530 5523 5516 5510 5505 5500 5493 5489 5486 5483 5480 5478 5476 5474 5471 5468 5466 5466 5464 5461 5459 5457 5455 5453 5450 5448 5446 5445 5444 5443
5647 5636 5630 5621 5613 5605 5596 5588 5579 5570 5562 5553 5546 5538 5531 5524 5516 5510 5505 5501 5496 5492 5489 5485 5483 5481 5478 5475 5472 5469 5468 5466 5466 5462 5460 5458 5456 5453 5451 5449 5447 5446 5444 5444
5655 5646 5638 5628 5618 5607 5598 5590 5581 5572 5564 5556 5549 5540 5532 5524 5517 5512 5507 5503 5498 5494 5491 5489 5486 5484 5481 5478 5475 5472 5470 5468 5466 5463 5460 5458 5456 5454 5452 5450 5448 5447 5445 5445
5652 5644 5636 5629 5620 5611 5602 5592 5583 5575 5567 5559 5551 5542 5535 5528 5522 5516 5511 5505 5501 5496 5494 5492 5490 5487 5484 5481 5478 5475 5472 5470 5467 5465 5462 5460 5457 5454 5452 5451 5449 5448 5446 5445
5651 5645 5637 5629 5621 5612 5603 5594 5586 5577 5569 5561 5553 5545 5537 5532 5526 5520 5514 5509 5505 5502 5500 5496 5493 5489 5487 5484 5482 5478 5475 5473 5470 5466 5463 5460 5458 5456 5454 5453 5451 5449 5447 5445
5651 5645 5638 5630 5621 5614 5606 5597 5588 5579 5571 5564 5556 5548 5542 5536 5531 5524 5517 5512 5510 5508 5504 5500 5496 5492 5490 5487 5485 5481 5479 5476 5473 5469 5466 5462 5460 5458 5456 5455 5453 5451 5449 5447
5652 5645 5638 5631 5622 5613 5606 5599 5591 5582 5574 5567 5560 5553 5546 5540 5535 5529 5524 5520 5516 5513 5508 5503 5500 5497 5494 5491 5487 5485 5483 5480 5476 5472 5469 5466 5463 5461 5459 5457 5455 5453 5451 5449
5652 5646 5639 5631 5623 5614 5606 5600 5593 5585 5577 5571 5564 5557 5551 5544 5539 5533 5527 5525 5521 5517 5512 5508 5505 5502 5498 5494 5492 5490 5488 5484 5480 5477 5473 5470 5468 5465 5463 5461 5459 5456 5454 5451
5651 5644 5638 5631 5623 5614 5606 5600 5594 5588 5581 5574 5568 5563 5556 5549 5543 5541 5538 5533 5527 5522 5517 5513 5510 5507 5503 5499 5497 5494 5492 5489 5486 5482 5479 5476 5473 5470 5468 5465 5463 5460 5458 5455
5650 5644 5637 5630 5622 5616 5608 5601 5595 5588 5582 5576 5571 5567 5562 5557 5551 5545 5541 5537 5532 5526 5522 5518 5515 5511 5507 5504 5502 5500 5497 5494 5491 5488 5485 5481 5479 5476 5473 5471 5468 5465 5462 5459
5648 5643 5637 5632 5626 5618 5610 5604 5596 5590 5584 5578 5573 5569 5565 5560 5556 5550 5545 5540 5536 5531 5527 5523 5519 5516 5512 5509 5507 5505 5502 5499 5497 5494 5491 5488 5485 5481 5479 5476 5474 5470 5467 5465
5645 5640 5634 5628 5623 5618 5612 5606 5599 5593 5588 5582 5577 5572 5568 5563 5558 5553 5548 5543 5538 5534 5531 5528 5525 5521 5518 5514 5512 5509 5507 5504 5502 5499 5496 5493 5490 5487 5484 5482 5479 5476 5473 5470